Change the Weather History Date:

Sunday, September 4, 2011

  Actual Average Record
Temperature  
Mean Temperature 65 °F 72 °F  
Max Temperature 76 °F 83 °F 103 °F (1913)
Min Temperature 54 °F 62 °F 38 °F (1891)
Degree Days  
Heating Degree Days 0 0  
Month to date heating degree days 0 0  
Since 1 July heating degree days 0 2  
Cooling Degree Days 0 8  
Month to date cooling degree days 56 33  
Year to date cooling degree days 1436 1116  
Growing Degree Days 16 (Base 50)    
Moisture  
Dew Point 58 °F    
Average Humidity 69    
Maximum Humidity 100    
Minimum Humidity 38    
Precipitation  
Precipitation 0.27 in 0.12 in 2.31 in (2008)
Month to date precipitation 0.38 0.53  
Year to date precipitation 28.57 30.28  
Snow  
Snow 0.00 in 0.00 in 0.00 in (2013)
Month to date snowfall 0.0  
Since 1 July snowfall 0.0  
Since 1 September snowfall 0.0  
Snow Depth -    
Sea Level Pressure  
Sea Level Pressure 30.01 in    
Wind  
Wind Speed 11 mph (NNW)    
Max Wind Speed 22 mph    
Max Gust Speed 28 mph    
Visibility 9 miles    
Events Rain , Thunderstorm    
T = Trace of Precipitation, MM = Missing Value Source: NWS Daily Summary

Daily Weather History Graph

Daily Weather History Graph

Search for Another Location

Airport or City:

Trip Planner

Search our weather history database for the weather conditions in past years. The results will help you decide how hot, cold, wet, or windy it might be!

Date:

Astronomy

Sep. 04, 2011 Rise Set
Actual Time 6:40 AM CDT 7:34 PM CDT
Civil Twilight 6:13 AM CDT 8:01 PM CDT
Nautical Twilight 5:40 AM CDT 8:34 PM CDT
Astronomical Twilight 5:07 AM CDT 9:07 PM CDT
Moon 2:20 PM CDT (9/4) No Moon Set
Length of Visible Light 13h 48m
Length of Day
12h 54m
Waxing Crescent, 50% of the Moon is Illuminated
Sep 4
Waxing Crescent
Sep 4
First Quarter
Sep 12
Full
Sep 20
Last Quarter
Sep 27
New

Hourly Weather History & Observations

Time (CDT) Temp. Dew Point Humidity Pressure Visibility Wind Dir Wind Speed Gust Speed Precip Events Conditions
12:28 AM 69.8 °F 68.0 °F 94% 29.96 in 7.0 mi SSW 4.6 mph - 0.01 in Rain , Thunderstorm Rain
12:43 AM 69.8 °F 68.0 °F 94% 29.95 in 9.0 mi SSW 5.8 mph - 0.02 in Rain Light Rain
12:54 AM 69.1 °F 68.0 °F 96% 29.92 in 9.0 mi Calm Calm - 0.03 in Rain Light Rain
1:44 AM 69.8 °F 69.8 °F 100% 29.96 in 6.0 mi WNW 11.5 mph - 0.03 in Rain , Thunderstorm Light Thunderstorms and Rain
1:54 AM 69.1 °F 68.0 °F 96% 29.94 in 6.0 mi WNW 11.5 mph - 0.04 in Rain , Thunderstorm Thunderstorms and Rain
2:40 AM 68.0 °F 68.0 °F 100% 29.96 in 5.0 mi SW 4.6 mph - 0.05 in Rain Rain
2:54 AM 68.0 °F 68.0 °F 100% 29.94 in 7.0 mi West 5.8 mph - 0.07 in Rain Light Rain
3:54 AM 66.2 °F 66.2 °F 100% 29.98 in 10.0 mi West 8.1 mph - N/A Rain Light Rain
4:54 AM 66.9 °F 66.0 °F 97% 29.95 in 10.0 mi WNW 3.5 mph - 0.04 in   Overcast
5:10 AM 66.2 °F 66.2 °F 100% 29.99 in 10.0 mi NW 6.9 mph - N/A   Overcast
5:14 AM 66.2 °F 66.2 °F 100% 29.99 in 10.0 mi NW 9.2 mph - N/A   Overcast
5:25 AM 66.2 °F 66.2 °F 100% 29.99 in 10.0 mi North 9.2 mph - N/A   Overcast
5:36 AM 66.2 °F 64.4 °F 94% 30.00 in 10.0 mi North 12.7 mph - N/A   Overcast
5:54 AM 64.4 °F 62.6 °F 94% 30.00 in 10.0 mi North 13.8 mph - N/A   Overcast
6:12 AM 64.4 °F 60.8 °F 88% 30.01 in 10.0 mi North 12.7 mph - N/A   Overcast
6:54 AM 63.0 °F 59.0 °F 87% 29.99 in 10.0 mi North 11.5 mph - N/A   Overcast
7:54 AM 63.0 °F 57.9 °F 84% 30.02 in 10.0 mi North 12.7 mph - N/A   Overcast
8:23 AM 64.4 °F 57.2 °F 77% 30.04 in 10.0 mi North 15.0 mph - N/A   Overcast
8:54 AM 64.0 °F 57.0 °F 78% 30.03 in 10.0 mi North 13.8 mph - N/A   Overcast
9:54 AM 64.0 °F 55.0 °F 73% 30.04 in 10.0 mi North 16.1 mph 23.0 mph N/A   Overcast
10:54 AM 66.0 °F 55.9 °F 70% 30.06 in 10.0 mi NNE 15.0 mph - N/A   Overcast
11:54 AM 70.0 °F 55.0 °F 59% 30.05 in 10.0 mi North 12.7 mph 21.9 mph N/A   Clear
12:54 PM 73.0 °F 53.1 °F 49% 30.04 in 10.0 mi North 12.7 mph 23.0 mph N/A   Clear
1:54 PM 73.9 °F 52.0 °F 46% 30.04 in 10.0 mi North 16.1 mph 25.3 mph N/A   Clear
2:54 PM 75.0 °F 50.0 °F 41% 30.02 in 10.0 mi North 18.4 mph 23.0 mph N/A   Clear
3:54 PM 75.0 °F 50.0 °F 41% 30.01 in 10.0 mi North 12.7 mph - N/A   Clear
4:54 PM 75.0 °F 48.9 °F 40% 30.01 in 10.0 mi North 15.0 mph 23.0 mph N/A   Clear
5:54 PM 73.4 °F 46.4 °F 38% 30.03 in 10.0 mi North 16.1 mph - N/A   Clear
6:54 PM 70.0 °F 46.0 °F 42% 30.03 in 10.0 mi North 12.7 mph - N/A   Clear
7:54 PM 63.0 °F 48.0 °F 58% 30.04 in 10.0 mi North 8.1 mph - N/A   Clear
8:54 PM 61.0 °F 48.0 °F 62% 30.06 in 10.0 mi North 9.2 mph - N/A   Clear
9:54 PM 59.0 °F 48.9 °F 69% 30.07 in 10.0 mi North 8.1 mph - N/A   Clear
10:54 PM 57.0 °F 48.9 °F 74% 30.08 in 10.0 mi North 6.9 mph - N/A   Clear
11:54 PM 57.0 °F 48.9 °F 74% 30.09 in 10.0 mi North 8.1 mph - N/A   Clear